Погода в Нурлине

Россия / Республика Башкортостан     54°48′49″N   55°34′14″E
темп.,
°C
ветер,
м/с
пор.,
м/с
влажн.,
%
обл.,
%
осадки,
мм/ч
давл.,
гПа
погр.,
м
24 сентября, пт
пт2423:00+10юв4125899 0.0 1024264
02:00+9ююв51455100 0.0 1024367
05:00+9ююв51355100 0.0 1024425
08:00+10ююв61350100 0.0 1025684
11:00+11ююв61347100 0.0 1024746
14:00+11ююв71340100 0.0 1024676
17:00+12юв51140100 0.0 1023681
20:00+11юв4944100 0.0 1022261
25 сентября, сб
сб2523:00+12юв61240100 0.0 1020455
02:00+11юв61340100 0.0 1020490
05:00+10вюв51240100 0.0 1018434
08:00+10вюв61341100 0.0 1016432
11:00+14юв71334100 0.0 1015810
14:00+17ююв71026100 0.0 10131207
17:00+16юв61129100 0.0 1013786
20:00+13юв81249100 0.1 1014698
26 сентября, вс
вс2623:00+11в51460100 0.1 1013476
02:00+12вюв71241100 0.0 1011278
05:00+12всв41042100 0.0 1010257
08:00+11вюв41139100 0.0 1010344
11:00+11юв61166100 0.1 1010856
14:00+10юв3888100 1.6 1010518
17:00+11юв3782100 2.2 1010311
20:00+11вюв61355100 0.0 1010402
27 сентября, пн
пн2723:00+9вюв71363100 0.0 1011632
02:00+9вюв61170100 0.0 1012600
05:00+7в61189100 0.2 1012621
08:00+6всв61080100 0.8 1013472
11:00+6всв6864100 0.8 1014610
14:00+9всв784796 0.0 1014993
17:00+9всв81043100 0.0 10151222
20:00+8всв6114287 0.0 1017841
28 сентября, вт
вт2823:00+5св612524 0.0 1019553
02:00+3св6126095 0.0 1020525
05:00+2св612705 0.0 1021484
08:00+1св5107953 0.0 1023495
11:00+5св5757100 0.0 1023941
14:00+7св5644100 0.0 10221244
17:00+7ссв4641100 0.0 10221385
20:00+5с4851100 0.0 1023280